User: anonymous   Login
Location: Ay?beleni
(36.6500°N, 30.3000°E)
Time: 21:42:31
(UTC+00:00)
Language:

Cosmos 405 Rocket - Orbit

View from above orbital plane
View from above orbital plane
View from above satellite
View from above satellite

Ground track
Ground track

The orbit data is extracted from the following two-line orbital elements,

1 05118U 71028B   22016.86670410  .00002184  00000-0  11081-3 0  9995
2 05118  81.2538  31.7077 0047347  67.2973 293.3250 15.15481076757380
Epoch (UTC): 16 January 2022 20:48:03
Eccentricity: 0.0047347
inclination: 81.2538°
perigee height: 487 km
apogee height: 552 km
right ascension of ascending node: 31.7077°
argument of perigee: 67.2973°
revolutions per day: 15.15481076
mean anomaly at epoch: 293.3250°
orbit number at epoch: 75738

The dashed part of the orbit path shows where the satellite is in the earth's shadow,  

DLR